SM7GXQ Weather Reports


Display with metric or nautical units.
time (UTC)temp
F
wind
direction
speed
MPH
gust
MPH
rain 1hr
in
rain 24hr
in
rain mn
in
humidity
%
barometer
mb
20260905060004 58 273 3.0 12.0 0.00 0.26 0.01 89 998.2
20260905054504 58 280 7.0 13.0 0.00 0.26 0.01 89 998.0
20260905051504 58 260 3.0 10.0 0.00 0.26 0.01 90 998.0
20260905043005 57 265 3.0 12.0 0.00 0.26 0.01 91 997.4
20260905041505 57 274 3.0 9.0 0.00 0.26 0.01 91 997.0
20260905033005 57 264 3.0 9.0 0.00 0.26 0.01 91 996.4
20260905030005 57 275 2.0 8.0 0.00 0.26 0.01 91 996.0
20260905023005 57 271 3.0 12.0 0.00 0.26 0.01 89 996.0
20260905021505 57 251 3.0 10.0 0.01 0.26 0.01 89 996.0
20260905020005 57 251 4.0 10.0 0.01 0.26 0.01 89 996.0
20260905014504 58 272 3.0 12.0 0.01 0.27 0.01 90 996.0
20260905010004 58 248 3.0 9.0 0.00 0.28 0.00 90 995.9
20260905003003 58 271 4.0 12.0 0.00 0.28 0.00 91 995.9
20260905001503 58 251 3.0 12.0 0.00 0.28 0.00 91 995.9
20260904234504 58 268 3.0 9.0 0.00 0.28 0.00 90 995.5
20260904231504 59 280 4.0 9.0 0.00 0.28 0.00 91 995.5
20260904230004 59 281 5.0 8.0 0.00 0.28 0.00 91 995.7
20260904223004 59 293 3.0 6.0 0.00 0.28 0.00 92 995.5
20260904221505 59 277 2.0 6.0 0.00 0.28 0.00 93 995.1
20260904220004 59 279 4.0 7.0 0.00 0.28 0.00 93 995.1
20260904214505 59 269 3.0 6.0 0.00 0.28 0.28 93 995.1
20260904210004 59 232 1.0 5.0 0.00 0.31 0.28 93 995.0
20260904204504 59 259 2.0 6.0 0.00 0.35 0.28 93 995.1
20260904203005 59 207 1.0 8.0 0.00 0.37 0.28 93 995.2
20260904184504 59 236 2.0 6.0 0.01 0.38 0.28 93 995.6
20260904181503 59 220 3.0 10.0 0.00 0.62 0.27 93 995.6
20260904180004 59 230 3.0 8.0 0.02 0.62 0.27 93 995.6
20260904174504 59 195 3.0 12.0 0.05 0.62 0.27 94 995.6
20260904170004 59 212 1.0 8.0 0.07 0.61 0.25 93 996.0
20260904164505 59 224 2.0 8.0 0.05 0.58 0.22 93 996.0
20260904163004 59 213 3.0 7.0 0.03 0.57 0.20 93 996.5
20260904161504 59 202 3.0 7.0 0.05 0.57 0.20 93 996.5
20260904160005 59 170 2.0 7.0 0.05 0.55 0.18 93 996.5
20260904150004 59 211 3.0 12.0 0.06 0.50 0.13 92 997.1
20260904143005 59 182 1.0 5.0 0.04 0.47 0.10 91 997.7
20260904130004 60 209 4.0 12.0 0.02 0.43 0.05 87 999.0
20260904121504 61 241 3.0 13.0 0.00 0.40 0.02 82 999.2
20260904113005 63 161 2.0 12.0 0.00 0.40 0.02 78 999.7
20260904101504 63 214 3.0 12.0 0.00 0.40 0.02 78 1000.1
20260904100005 63 225 3.0 12.0 0.00 0.40 0.02 78 1000.3
20260904091504 63 249 4.0 9.0 0.00 0.40 0.02 81 1000.6
20260904090005 63 219 2.0 9.0 0.00 0.40 0.02 80 1000.6
20260904083005 63 274 3.0 8.0 0.00 0.40 0.02 82 1000.6
20260904081504 62 251 3.0 12.0 0.00 0.40 0.02 83 1000.7
20260904080004 62 243 2.0 8.0 0.00 0.40 0.02 83 1001.1
20260904073005 61 271 6.0 15.0 0.00 0.40 0.02 84 1001.1